Theta_e
330 332 331 330 329 325 322 325 320 321 320 320 321 321 322 326 329 330 332 323 330 335 335 334 334 334 332 332 331 330 328 327 326 324 325 325 325 324 323 323 322 322 322
330 330 330 328 329 325 322 321 320 320 318 319 320 321 323 325 325 327 329 329 326 330 334 334 335 334 332 330 329 327 327 326 324 323 322 323 322 322 321 321 320 320 319
330 329 329 327 328 327 323 319 318 319 318 319 321 319 321 321 323 323 327 329 328 323 328 333 331 330 331 330 329 327 325 325 323 322 322 322 321 319 318 317 317 317 317
329 328 326 325 328 324 319 319 319 317 317 319 320 320 319 319 320 321 322 325 328 328 326 329 330 330 328 327 327 326 324 323 322 320 319 319 318 318 317 318 318 318 319
327 327 324 324 324 322 320 317 318 317 315 319 318 318 318 317 317 318 319 320 322 324 326 324 323 323 327 326 326 325 323 321 320 319 318 318 318 318 318 318 318 318 317
324 324 322 320 320 319 316 316 318 319 318 317 314 315 315 316 314 317 316 317 320 320 321 322 322 321 322 326 324 325 325 323 321 320 319 319 318 318 317 317 318 317 317
322 322 320 317 318 316 316 315 316 315 313 313 310 305 306 312 314 313 315 315 315 317 318 320 322 324 323 325 327 327 326 325 323 322 321 320 319 319 319 319 319 320 320
319 320 318 316 316 315 313 313 313 311 310 312 311 308 302 303 305 311 313 312 313 313 313 314 318 319 322 319 320 325 328 327 325 324 323 322 322 322 322 322 323 324 325
317 318 317 316 315 315 314 313 312 311 309 311 313 310 304 303 302 301 307 310 310 312 309 311 312 314 315 313 315 315 318 323 327 326 326 325 325 324 325 324 323 322 322
318 317 317 316 315 315 316 313 313 312 312 308 306 304 312 309 303 295 297 301 305 306 309 307 309 309 310 310 307 304 306 313 317 323 324 323 323 323 321 320 320 321 321
317 315 316 316 314 315 316 314 314 313 312 309 310 300 303 308 311 304 295 292 295 302 306 309 309 308 307 307 307 303 305 310 311 314 317 319 320 318 318 318 318 318 318
315 315 315 315 314 314 315 313 313 314 311 310 309 305 304 305 305 307 304 296 296 292 296 301 303 303 303 303 300 299 305 310 313 313 313 314 316 318 317 317 317 317 317
313 313 314 314 313 313 312 311 311 309 311 310 310 306 303 309 307 309 307 304 295 293 293 298 299 299 298 300 299 297 303 310 312 312 312 313 315 316 316 315 315 314 312
314 315 313 314 314 313 312 311 313 310 310 310 310 307 301 301 306 303 306 302 295 292 293 296 297 298 299 300 300 297 307 307 310 311 310 310 311 311 311 311 310 308 308
306 314 313 313 313 313 312 312 311 309 310 311 310 307 301 300 303 303 305 305 303 297 295 295 295 297 299 301 301 307 308 301 307 308 307 308 308 308 308 308 307 306 305
303 308 312 312 312 312 311 310 311 311 309 310 307 307 304 299 299 300 302 305 306 302 298 296 296 296 298 299 296 306 306 299 302 304 305 305 305 306 306 305 304 304 303
294 298 311 311 311 310 309 307 307 308 305 306 305 305 304 302 298 299 300 304 303 302 298 292 296 297 295 295 296 301 303 304 302 300 302 302 303 303 302 302 301 301 301
294 296 304 310 309 308 308 306 304 302 302 301 302 302 303 301 299 299 299 300 300 302 300 292 294 294 294 295 295 295 293 297 300 298 300 300 300 300 299 299 298 298 299
292 292 295 309 307 307 305 306 305 304 303 303 302 301 304 301 301 299 299 298 300 299 300 296 294 295 293 293 292 292 293 297 294 296 298 298 298 297 296 296 296 296 297
291 291 294 308 306 305 304 304 304 304 303 305 306 304 305 301 302 301 298 298 297 297 298 296 294 293 292 290 292 290 289 293 291 291 294 296 296 295 295 295 295 294 296
290 291 291 306 305 304 301 302 301 302 300 300 301 301 303 301 297 300 298 296 293 294 296 295 292 292 291 287 288 291 290 291 291 292 292 293 291 293 294 293 291 292 295
289 290 291 303 302 301 297 299 300 300 298 295 295 297 298 291 293 295 296 295 294 292 292 293 292 290 289 289 290 289 289 287 286 292 292 291 291 290 291 293 293 293 294
289 290 292 302 302 303 298 298 297 301 298 295 294 293 292 291 291 294 294 294 293 295 296 294 291 291 290 290 289 287 287 287 289 289 292 289 290 289 291 291 292 293 294
288 289 293 299 301 302 298 297 295 299 297 295 294 292 292 290 290 291 291 291 290 293 294 294 294 294 294 292 289 289 288 287 286 288 291 287 288 288 289 290 292 292 293
288 288 292 294 295 295 297 297 296 295 292 292 292 292 292 291 291 292 290 289 289 290 293 294 295 295 294 293 291 287 285 285 285 285 287 288 285 287 288 289 291 292 292
287 289 290 292 293 292 296 296 296 296 291 293 292 291 290 291 291 293 290 289 288 289 288 287 288 290 291 291 289 288 287 286 286 284 287 287 285 286 283 287 287 287 290
Wind_Speed
8 7 7 6 7 7 7 8 8 10 6 9 7 6 5 5 5 3 5 8 14 18 23 23 25 23 22 21 21 20 18 19 18 17 16 16 16 16 16 16 15 14 14
9 9 8 7 10 8 6 8 9 8 12 7 7 7 7 8 6 5 4 5 10 16 20 24 25 24 23 21 19 20 19 18 17 17 16 16 15 14 14 14 13 12 12
13 12 9 9 11 11 11 9 8 9 8 9 10 7 4 6 5 5 5 6 7 10 16 19 21 21 22 22 21 19 19 18 17 16 15 16 15 14 14 13 13 11 10
15 13 11 8 9 11 9 8 10 9 10 12 9 9 6 4 7 7 5 6 6 7 10 18 19 20 20 21 20 19 18 17 17 16 14 14 13 13 13 13 13 12 11
16 13 10 9 11 10 11 10 10 13 10 10 8 7 6 6 5 5 6 5 7 4 7 10 15 15 17 19 19 19 18 17 16 15 14 13 13 13 12 12 11 10 9
14 13 9 11 11 10 10 9 13 10 13 10 7 9 6 5 5 6 7 6 7 8 7 8 8 7 12 16 19 19 19 19 17 16 14 13 12 11 10 10 8 7 5
15 14 10 12 12 13 14 13 11 13 9 11 10 6 5 4 6 4 5 6 7 6 8 6 6 5 4 14 17 18 18 18 18 16 15 14 12 11 9 8 7 5 5
16 14 13 13 14 12 14 13 12 8 5 11 10 8 4 2 0 3 4 5 8 6 7 7 8 8 6 4 7 6 15 19 17 16 15 13 12 10 10 9 8 8 7
16 17 16 14 15 14 14 17 14 13 10 8 14 10 8 8 5 1 2 4 7 7 6 7 7 8 7 4 4 6 6 7 13 15 14 11 10 8 8 8 8 9 9
19 17 18 16 16 13 17 16 16 13 13 13 5 3 6 9 9 3 1 1 2 4 7 4 5 6 6 5 4 4 3 5 5 9 11 11 10 10 10 9 8 9 9
17 18 18 19 17 13 17 19 18 17 12 13 11 4 6 7 12 6 5 2 2 1 1 6 6 6 6 5 6 5 7 7 7 9 9 9 10 11 11 11 11 10 11
13 18 18 18 18 17 19 18 18 20 14 11 13 9 9 10 11 10 8 5 6 2 1 4 5 5 5 6 5 9 12 13 12 12 12 11 11 12 13 13 13 14 14
11 17 20 20 18 19 19 18 18 15 15 13 16 11 7 8 9 8 11 10 4 2 2 2 3 4 4 4 6 9 10 13 14 13 12 12 13 12 14 15 16 15 15
14 20 21 20 22 23 21 20 16 16 14 12 17 12 9 7 9 8 9 12 7 3 3 4 4 5 6 6 7 9 10 13 16 16 15 15 15 14 14 17 16 16 16
13 20 23 20 22 23 23 22 16 19 18 17 16 16 12 9 9 9 9 12 14 10 10 7 5 7 5 5 8 10 11 10 15 17 16 16 16 15 16 17 16 15 15
17 19 24 23 22 22 22 22 18 20 20 16 14 19 16 11 10 10 10 12 10 9 8 5 4 6 7 4 3 7 8 11 12 16 16 15 16 15 15 15 15 14 14
16 13 21 24 23 22 23 22 20 20 21 19 16 18 19 16 11 10 9 10 10 9 9 3 5 10 9 9 8 8 8 9 8 14 16 16 15 15 14 15 14 15 15
14 18 21 24 24 24 22 23 21 20 22 20 19 18 19 12 16 12 10 13 12 9 7 12 11 10 10 10 9 9 6 4 8 10 15 16 15 14 14 14 15 14 15
14 18 20 24 23 24 24 23 23 22 21 21 21 20 20 18 18 14 13 12 10 7 8 10 9 9 9 8 9 6 8 8 4 11 14 15 15 15 15 15 15 12 10
12 18 18 23 24 23 23 22 21 22 21 21 21 21 21 21 21 19 16 14 12 9 9 11 10 11 8 8 8 9 7 7 8 3 4 7 12 13 15 14 13 11 11
10 16 18 22 23 22 19 23 21 21 21 19 19 18 18 20 25 21 15 15 14 11 10 11 10 11 10 10 14 10 9 8 7 6 8 8 7 7 8 11 10 11 13
11 15 19 20 22 17 27 34 26 19 19 19 17 16 17 15 18 23 21 21 20 17 13 10 11 14 16 15 13 12 11 11 7 8 8 8 7 8 7 7 13 16 16
11 14 20 18 21 21 29 32 32 18 18 18 17 16 13 11 15 18 23 25 24 26 24 18 18 17 17 20 18 15 13 13 7 9 10 8 7 7 6 6 17 17 16
11 12 19 14 18 17 28 32 30 20 16 17 18 17 18 16 17 16 15 14 15 16 16 12 15 17 17 18 21 16 16 8 7 7 5 6 7 5 7 6 17 17 16
12 12 12 12 15 13 27 31 28 16 14 16 15 16 18 17 23 28 18 17 14 12 8 9 7 10 15 25 18 13 11 13 5 6 7 4 6 5 6 7 8 18 16
14 10 10 12 14 13 24 29 26 13 13 12 14 15 24 21 28 29 20 18 17 15 13 9 7 9 14 20 26 18 15 16 8 3 8 6 6 6 5 3 6 6 9
Wind_Direction
198 194 174 156 136 140 138 131 125 130 125 130 152 150 186 155 165 134 141 149 160 149 146 142 140 141 135 134 135 126 123 121 122 122 121 120 116 117 118 115 103 100 96
206 194 175 170 145 146 145 135 145 159 142 148 160 166 179 144 142 141 113 148 159 158 150 144 141 142 142 142 137 134 130 131 128 128 126 121 121 118 114 108 106 103 97
203 189 178 182 163 159 152 134 142 150 150 142 175 159 187 136 128 129 125 150 146 149 151 142 141 143 141 140 139 139 137 137 134 128 133 130 128 125 121 119 114 108 101
200 195 185 176 173 164 161 150 153 144 162 156 172 156 151 131 135 133 132 139 139 160 149 142 142 143 148 143 144 140 140 142 139 137 139 133 132 130 126 123 120 116 107
198 191 186 171 170 161 167 172 168 155 155 162 158 140 138 145 141 139 146 131 126 112 152 124 128 139 144 147 148 148 149 148 145 142 141 139 139 137 132 128 125 120 121
192 193 182 169 173 164 162 174 176 165 156 152 141 139 137 132 153 156 147 137 144 136 124 119 123 134 148 151 156 155 152 151 149 148 148 149 148 145 144 141 138 137 134
196 187 177 170 177 170 168 172 161 163 147 146 128 88 74 106 145 156 155 147 141 132 124 112 117 136 120 161 166 158 159 154 155 157 156 160 160 159 162 165 165 177 186
194 188 178 179 174 174 163 164 164 151 142 174 154 132 141 93 128 179 173 162 144 135 128 120 131 132 125 107 88 127 177 166 165 166 164 167 175 176 184 195 215 233 242
194 186 183 181 176 175 169 163 168 176 162 184 172 155 157 182 141 347 203 157 151 150 128 133 137 138 135 126 122 116 93 112 177 183 180 191 196 193 195 137 118 108 106
205 185 183 177 177 181 179 174 171 176 170 168 173 160 193 141 165 144 339 75 151 141 144 117 148 142 146 150 127 98 121 168 161 152 155 159 160 154 148 147 141 130 117
205 190 182 171 180 185 181 176 177 174 181 168 175 150 169 168 186 153 143 144 29 123 159 160 159 155 157 157 157 159 181 174 169 159 159 162 169 171 164 155 144 135 123
196 192 186 179 179 181 181 180 181 180 176 193 181 173 184 173 173 161 160 153 145 147 104 164 173 169 162 166 174 164 178 169 165 156 155 158 161 155 155 149 137 129 120
187 188 187 184 179 179 178 176 179 183 173 179 191 183 187 196 176 160 170 169 137 126 164 194 183 166 155 169 166 183 167 154 144 136 134 133 132 134 141 139 131 125 121
226 188 187 184 182 175 177 176 183 174 178 183 192 188 181 169 170 167 168 158 142 150 179 149 175 187 174 176 167 184 162 151 142 137 132 126 123 127 135 137 134 128 123
303 200 182 185 183 177 176 179 183 176 179 185 195 190 187 176 174 171 169 176 173 172 192 181 168 179 171 164 158 173 162 141 141 136 134 132 135 140 144 140 138 133 125
292 295 186 183 183 177 173 178 181 183 177 185 186 187 191 177 175 166 168 181 183 168 163 155 182 157 151 142 107 145 143 136 131 133 136 142 140 147 144 143 139 133 128
318 310 214 187 182 178 174 176 178 179 180 182 183 186 191 177 174 174 167 183 186 178 153 127 127 150 144 148 138 129 136 135 132 132 140 144 146 145 143 142 141 139 133
292 282 278 186 186 177 177 175 174 176 179 183 183 185 190 178 182 174 172 176 182 169 149 154 143 162 157 157 144 138 127 137 141 144 144 143 144 144 147 146 145 146 140
285 307 296 192 183 180 178 181 179 172 184 183 186 187 190 182 191 182 177 174 178 168 149 146 139 157 142 155 148 136 152 141 116 145 151 150 150 152 153 152 150 143 141
291 301 296 202 184 180 177 183 185 181 184 192 195 194 189 189 193 188 182 175 170 167 151 150 142 155 148 157 164 158 158 166 152 132 139 155 151 151 154 157 156 148 148
285 287 293 221 183 179 178 178 184 185 181 189 192 194 199 193 194 192 178 175 161 165 159 154 150 157 159 161 183 175 165 155 161 176 167 164 159 163 162 164 161 162 160
280 279 285 220 176 180 186 174 177 183 184 178 185 189 198 190 193 183 183 177 173 168 162 158 164 172 181 181 172 174 160 159 185 194 170 170 177 176 173 174 176 175 174
273 275 283 211 181 183 181 176 178 184 183 183 181 183 186 191 192 187 182 173 179 185 181 175 174 184 171 180 168 169 179 187 174 153 162 161 183 179 179 179 180 182 185
260 269 267 203 187 184 180 175 178 178 185 186 178 178 183 185 184 178 174 173 182 190 190 190 190 189 191 173 178 179 169 134 76 147 157 149 172 180 166 184 191 195 194
265 269 254 192 196 173 175 177 174 177 178 185 182 179 184 184 185 175 169 175 181 193 178 173 180 176 158 167 163 134 157 161 138 181 202 125 165 144 173 183 190 202 206
261 265 242 198 195 163 173 176 176 178 177 181 183 188 186 184 182 180 173 176 179 184 167 139 130 130 149 168 167 178 165 175 155 132 190 159 145 148 169 197 191 190 196